Location: Newark
(34.1333°N, 7.9667°W)
Time: 19:37:52
(UTC+00:00)

Envisat - Visible Passes

Search period start: 26 September 2021 00:00
Search period end: 06 October 2021 00:00
Orbit: 764 x 766 km, 98.2° (Epoch: 26 September)

Date Brightness Start Highest point End Pass type
(mag) Time Alt. Az. Time Alt. Az. Time Alt. Az.
26 Sep 4.5 05:05:24 10° NNE 05:10:07 38° E 05:14:48 10° SSE visible
27 Sep 5.9 04:30:00 10° NE 04:33:03 16° E 04:36:05 10° SE visible
28 Sep 3.3 05:30:25 10° NNE 05:35:30 72° ESE 05:40:33 10° S visible
29 Sep 5.0 04:54:09 10° NE 04:58:33 29° E 05:02:56 10° SSE visible
30 Sep 6.1 04:19:35 10° ENE 04:21:25 12° E 04:23:16 10° ESE visible
30 Sep 3.0 05:55:46 10° N 06:00:47 62° WNW 06:05:47 10° SSW visible
01 Oct 3.8 05:18:59 10° NNE 05:23:58 54° E 05:28:55 10° S visible
02 Oct 5.4 04:43:01 10° NE 04:46:59 23° E 04:50:54 10° SSE visible
03 Oct 3.0 05:44:13 10° N 05:49:18 81° WNW 05:54:22 10° SSW visible
04 Oct 4.3 05:07:38 10° NNE 05:12:26 41° E 05:17:12 10° S visible
05 Oct 5.8 04:32:04 10° NE 04:35:23 17° E 04:38:41 10° SE visible
